When you browse on this site, cookies collect data to enhance your experience and personalize the content and advertising you see.
Visit our Privacy Policy to learn more. By continuing to use the site, you agree to this use of cookies and data.
  • In Hungary
  • List of Countries
  • For 7 days
  • Water Temperature
  • Weather Map
  • News
  • Weather Widgets
  • user-avatar
    Login

    Hourly Weather Bihać

    Today, 28 May, Thursday

    Time Temperature Precipitation Wind Pressure Humidity
    00:00 +8°C° 0 mm 2 mps 717 mmHg 88%
    01:00 +7°C° 0 mm 2 mps 717 mmHg 87%
    02:00 +7°C° 0 mm 2 mps 716 mmHg 87%
    03:00 +7°C° 0 mm 2 mps 716 mmHg 88%
    04:00 +7°C° 0 mm 2 mps 716 mmHg 89%
    05:00 +9°C° 0 mm 2 mps 716 mmHg 83%
    06:00 +10°C° 0 mm 2 mps 716 mmHg 77%
    07:00 +13°C° 0 mm 2 mps 716 mmHg 72%
    08:00 +14°C° 0 mm 3 mps 716 mmHg 65%
    09:00 +16°C° 0 mm 3 mps 716 mmHg 58%
    10:00 +17°C° 0 mm 4 mps 716 mmHg 52%
    11:00 +18°C° 0 mm 4 mps 715 mmHg 51%
    12:00 +18°C° 0 mm 4 mps 715 mmHg 50%
    13:00 +19°C° 0 mm 4 mps 715 mmHg 49%
    14:00 +18°C° 0.2 mm 3 mps 714 mmHg 53%
    15:00 +18°C° 0.2 mm 3 mps 714 mmHg 58%
    16:00 +17°C° 0.2 mm 3 mps 713 mmHg 63%
    17:00 +16°C° 0.2 mm 3 mps 713 mmHg 70%
    18:00 +15°C° 0.2 mm 2 mps 713 mmHg 76%
    19:00 +13°C° 0.2 mm 2 mps 713 mmHg 83%
    20:00 +13°C° 0.9 mm 2 mps 713 mmHg 85%
    21:00 +11°C° 0.9 mm 3 mps 713 mmHg 88%
    22:00 +10°C° 0.9 mm 4 mps 713 mmHg 91%
    23:00 +10°C° 0.5 mm 3 mps 713 mmHg 91%

    Tomorrow, 29 May, Friday

    Time Temperature Precipitation Wind Pressure Humidity
    00:00 +9°C° 0.5 mm 3 mps 713 mmHg 92%
    01:00 +9°C° 0.5 mm 3 mps 713 mmHg 92%
    02:00 +8°C° 0 mm 3 mps 712 mmHg 92%
    03:00 +8°C° 0 mm 3 mps 712 mmHg 92%
    04:00 +7°C° 0 mm 3 mps 712 mmHg 91%
    05:00 +8°C° 0 mm 3 mps 712 mmHg 89%
    06:00 +9°C° 0 mm 3 mps 712 mmHg 86%
    07:00 +10°C° 0 mm 3 mps 713 mmHg 83%
    08:00 +11°C° 0 mm 3 mps 713 mmHg 79%
    09:00 +12°C° 0 mm 3 mps 713 mmHg 74%
    10:00 +13°C° 0 mm 3 mps 713 mmHg 69%
    11:00 +13°C° 0 mm 3 mps 713 mmHg 68%
    12:00 +14°C° 0 mm 3 mps 713 mmHg 67%
    13:00 +14°C° 0 mm 3 mps 713 mmHg 67%
    14:00 +14°C° 0 mm 3 mps 712 mmHg 66%
    15:00 +14°C° 0 mm 3 mps 712 mmHg 65%
    16:00 +16°C° 0 mm 3 mps 712 mmHg 64%
    17:00 +15°C° 0 mm 2 mps 711 mmHg 70%
    18:00 +14°C° 0 mm 2 mps 711 mmHg 76%
    19:00 +13°C° 0 mm 2 mps 711 mmHg 82%
    20:00 +12°C° 0 mm 2 mps 711 mmHg 85%
    21:00 +10°C° 0 mm 2 mps 711 mmHg 88%
    22:00 +9°C° 0 mm 2 mps 711 mmHg 91%
    23:00 +9°C° 0 mm 2 mps 711 mmHg 91%

    Day after tomorrow, 30 May, Saturday

    Time Temperature Precipitation Wind Pressure Humidity
    00:00 +9°C° 0 mm 2 mps 711 mmHg 91%
    01:00 +9°C° 0 mm 2 mps 711 mmHg 91%
    02:00 +9°C° 0.1 mm 2 mps 710 mmHg 91%
    03:00 +9°C° 0.1 mm 2 mps 710 mmHg 91%
    04:00 +9°C° 0.1 mm 2 mps 710 mmHg 92%
    05:00 +9°C° 0.1 mm 2 mps 710 mmHg 89%
    06:00 +9°C° 0.1 mm 3 mps 710 mmHg 86%
    07:00 +10°C° 0.1 mm 3 mps 710 mmHg 83%
    08:00 +11°C° 0 mm 3 mps 710 mmHg 76%
    09:00 +12°C° 0 mm 3 mps 711 mmHg 70%
    10:00 +13°C° 0 mm 3 mps 711 mmHg 64%
    11:00 +13°C° 0 mm 3 mps 711 mmHg 63%
    12:00 +14°C° 0 mm 3 mps 711 mmHg 61%
    13:00 +16°C° 0 mm 2 mps 711 mmHg 60%
    14:00 +15°C° 0.1 mm 2 mps 710 mmHg 62%
    15:00 +15°C° 0.1 mm 2 mps 710 mmHg 64%
    16:00 +15°C° 0.1 mm 2 mps 710 mmHg 66%
    17:00 +14°C° 0 mm 2 mps 710 mmHg 71%
    18:00 +13°C° 0 mm 2 mps 710 mmHg 76%
    19:00 +12°C° 0 mm 2 mps 709 mmHg 81%
    20:00 +12°C° 0 mm 2 mps 710 mmHg 83%
    21:00 +10°C° 0 mm 2 mps 710 mmHg 86%
    22:00 +9°C° 0 mm 2 mps 710 mmHg 88%
    23:00 +8°C° 0 mm 2 mps 710 mmHg 88%

    31 May, Sunday

    Time Temperature Precipitation Wind Pressure Humidity
    00:00 +8°C° 0 mm 2 mps 710 mmHg 88%
    01:00 +7°C° 0 mm 2 mps 710 mmHg 89%
    02:00 +7°C° 0 mm 2 mps 710 mmHg 89%
    03:00 +6°C° 0 mm 2 mps 709 mmHg 88%
    04:00 +6°C° 0 mm 2 mps 709 mmHg 88%
    05:00 +7°C° 0 mm 2 mps 709 mmHg 83%
    06:00 +9°C° 0 mm 2 mps 710 mmHg 77%
    07:00 +12°C° 0 mm 2 mps 710 mmHg 71%
    08:00 +14°C° 0 mm 2 mps 710 mmHg 63%
    09:00 +16°C° 0 mm 1 mps 710 mmHg 54%
    10:00 +19°C° 0 mm 1 mps 711 mmHg 46%
    11:00 +20°C° 0 mm 1 mps 710 mmHg 45%
    12:00 +19°C° 0 mm 2 mps 710 mmHg 44%
    13:00 +20°C° 0 mm 2 mps 710 mmHg 44%
    14:00 +19°C° 0 mm 2 mps 710 mmHg 47%
    15:00 +19°C° 0 mm 2 mps 709 mmHg 50%
    16:00 +18°C° 0 mm 3 mps 709 mmHg 53%
    17:00 +17°C° 0 mm 2 mps 709 mmHg 61%
    18:00 +15°C° 0 mm 2 mps 709 mmHg 68%
    19:00 +14°C° 0 mm 2 mps 709 mmHg 76%
    20:00 +13°C° 0 mm 1 mps 709 mmHg 77%
    21:00 +12°C° 0 mm 1 mps 709 mmHg 79%
    22:00 +11°C° 0 mm 1 mps 709 mmHg 81%
    23:00 +10°C° 0 mm 1 mps 709 mmHg 82%

    1 June, Monday

    Time Temperature Precipitation Wind Pressure Humidity
    00:00 +10°C° 0 mm 1 mps 708 mmHg 82%
    01:00 +8°C° 0 mm 2 mps 708 mmHg 83%
    02:00 +9°C° 0 mm 1 mps 708 mmHg 83%
    03:00 +9°C° 0 mm 1 mps 708 mmHg 83%
    04:00 +9°C° 0 mm 1 mps 708 mmHg 83%
    05:00 +10°C° 0 mm 1 mps 708 mmHg 80%
    06:00 +12°C° 0 mm 1 mps 708 mmHg 76%
    07:00 +13°C° 0 mm 1 mps 709 mmHg 73%
    08:00 +13°C° 0.1 mm 1 mps 709 mmHg 76%
    09:00 +13°C° 0.1 mm 2 mps 709 mmHg 79%
    10:00 +13°C° 0.1 mm 2 mps 709 mmHg 82%
    11:00 +13°C° 0.1 mm 2 mps 709 mmHg 82%
    12:00 +14°C° 0.1 mm 2 mps 709 mmHg 82%
    13:00 +14°C° 0.1 mm 2 mps 708 mmHg 83%
    14:00 +15°C° 0 mm 2 mps 708 mmHg 81%
    15:00 +16°C° 0 mm 2 mps 708 mmHg 79%
    16:00 +16°C° 0 mm 3 mps 708 mmHg 77%
    17:00 +16°C° 0 mm 2 mps 708 mmHg 80%
    18:00 +15°C° 0 mm 2 mps 708 mmHg 83%
    19:00 +14°C° 0 mm 2 mps 707 mmHg 86%
    20:00 +13°C° 0 mm 2 mps 707 mmHg 89%
    21:00 +12°C° 0 mm 2 mps 708 mmHg 91%
    22:00 +10°C° 0 mm 2 mps 708 mmHg 94%
    23:00 +12°C° 0.1 mm 2 mps 708 mmHg 94%

    2 June, Tuesday

    Time Temperature Precipitation Wind Pressure Humidity
    00:00 +11°C° 0.1 mm 3 mps 707 mmHg 93%
    01:00 +11°C° 0.1 mm 3 mps 707 mmHg 93%
    02:00 +11°C° 0 mm 3 mps 707 mmHg 93%
    03:00 +11°C° 0 mm 3 mps 707 mmHg 92%
    04:00 +11°C° 0 mm 3 mps 707 mmHg 92%
    05:00 +12°C° 0 mm 3 mps 707 mmHg 89%
    06:00 +12°C° 0 mm 3 mps 707 mmHg 87%
    07:00 +13°C° 0 mm 3 mps 707 mmHg 84%
    08:00 +14°C° 0 mm 3 mps 708 mmHg 77%
    09:00 +16°C° 0 mm 3 mps 708 mmHg 70%
    10:00 +17°C° 0 mm 3 mps 708 mmHg 63%
    11:00 +18°C° 0.2 mm 4 mps 708 mmHg 63%
    12:00 +18°C° 0.2 mm 4 mps 708 mmHg 63%
    13:00 +18°C° 0.2 mm 4 mps 708 mmHg 62%
    14:00 +18°C° 0.1 mm 4 mps 708 mmHg 62%
    15:00 +18°C° 0.1 mm 4 mps 707 mmHg 62%
    16:00 +18°C° 0.1 mm 3 mps 707 mmHg 62%
    17:00 +17°C° 0.1 mm 3 mps 707 mmHg 69%
    18:00 +16°C° 0.1 mm 3 mps 707 mmHg 76%
    19:00 +14°C° 0.1 mm 2 mps 706 mmHg 84%
    20:00 +13°C° 0 mm 2 mps 706 mmHg 87%
    21:00 +13°C° 0 mm 2 mps 707 mmHg 90%
    22:00 +12°C° 0 mm 2 mps 707 mmHg 93%
    23:00 +10°C° 0 mm 2 mps 707 mmHg 94%
    Show more